{"data":{"norad_id":65489,"epoch":"2026-09-20T22:33:38.619648Z","epoch_age_seconds":118281,"freshness":"FRESH","line1":"1 65489U 25197B   26263.94003032  .00002377  00000+0  11303-3 0  9995","line2":"2 65489  97.4114  88.5050 0014492  37.4080 322.8161 15.20077332 57823","mean_motion":15.20077332,"eccentricity":0.0014492,"inclination_deg":97.4114,"raan_deg":88.505,"arg_perigee_deg":37.408,"mean_anomaly_deg":322.8161,"bstar":0.00011303,"rev_number":5782,"period_min":94.732022488972,"perigee_km":495.63121402614,"apogee_km":515.58305803001,"semimajor_km":6883.7441360281,"source":"CELESTRAK","updated_at":"2026-09-21T09:00:15.388767Z"}}